Regional Weather Roundup
Issued by NWS

Home | Current Version | Previous Version | Graphics & Text | Print | Product List | Glossary On
Versions: 1 2 3 4 5 6 7 8 9 10 11 12 13 14 15 16 17 18 19 20 21 22 23 24 25 26 27 28 29 30 31 32 33 34 35 36 37 38 39 40 41 42 43 44 45 46 47 48 49 50
000
ASUS43 KTOP 242108
RWRKS

WEATHER ROUNDUP FOR KANSAS
NATIONAL WEATHER SERVICE GOODLAND KS
400 PM CDT THU APR 24 2014

NOTE:  "FAIR" INDICATES FEW OR NO CLOUDS BELOW 12,000 FEET WITH NO
SIGNIFICANT WEATHER AND/OR OBSTRUCTIONS TO VISIBILITY.

KSZ001>006-013>018-027>032-041>047-242200-
NORTHWEST KANSAS

CITY           SKY/WX    TMP DP  RH WIND       PRES   REMARKS
GOODLAND       SUNNY     66  11  11 NW16G24   29.91F
HAYS           SUNNY     70  30  23 NW14G23   29.86F
HILL CITY      SUNNY     70  24  17 NW15      29.86F
RUSSELL        MOSUNNY   70  30  22 NW21G32   29.83F
$$

KSZ061>065-074>080-084>089-242200-
SOUTHWEST KANSAS

CITY           SKY/WX    TMP DP  RH WIND       PRES   REMARKS
DODGE CITY     SUNNY     68  27  21 N17G28    29.90F
ELKHART          N/A     67  22  18 NW15        N/A
GARDEN CITY    SUNNY     69  14  12 NW15G22   29.90F
GREAT BEND     SUNNY     70  30  23 NW16G25   29.85F
LIBERAL        SUNNY     70  21  16 NW21      29.94F
PRATT          SUNNY     68  30  24 NW20G28   29.88S
$$

KSZ066>073-081>083-090>101-242200-
SOUTHEAST KANSAS

CITY           SKY/WX    TMP DP  RH WIND       PRES   REMARKS
CHANUTE        CLOUDY    63  52  67 NW17G24   29.71R
COFFEYVILLE    CLOUDY    62  53  72 NW16G25   29.72R
HUTCHINSON     MOSUNNY   69  33  26 N21G32    29.84R
MEDICINE LODGE   N/A     72  31  22 N21G32    29.85S
NEWTON         CLOUDY    55  43  62 N15       29.87R
PARSONS        CLOUDY    63  54  72 NW16G25   29.72R
WICHITA INTL   PTSUNNY   67  38  34 NW23G30   29.84R
WICHITA JABRA  CLOUDY    61  40  45 N22G33    29.83R
WICHITA MCCONL PTSUNNY   64  38  38 N26G35    29.83R
WINFIELD       CLOUDY    67  41  38 N23       29.83R
$$

KSZ007>012-019>026-033>040-048>060-102>105-242200-
NORTHEAST KANSAS

CITY           SKY/WX    TMP DP  RH WIND       PRES   REMARKS
CONCORDIA      PTSUNNY   67  37  33 NW16G24   29.80F
EMPORIA        CLOUDY    61  46  57 NW23G29   29.77R
LAWRENCE       CLOUDY    61  52  72 NW16      29.71R
MANHATTAN      CLOUDY    63  42  46 N10G22    29.78R
OLATHE IND     CLOUDY    58  52  80 N22       29.70R
OLATHE EXE     CLOUDY    57  52  83 N15       29.68R
SALINA         CLOUDY    69  40  34 N17G28    29.82S
TOPEKA BILLARD CLOUDY    62  50  64 NW14G25   29.74R
TOPEKA FORBES  CLOUDY    61  49  64 N22       29.73R
$$



USA.gov is the U.S. government's official web portal to all federal, state and local government web resources and services.